Regional Weather Roundup
Issued by NWS

Home | Current Version | Previous Version | Graphics & Text | Print | Product List | Glossary On
Versions: 1 2 3 4 5 6 7 8 9 10 11 12 13 14 15 16 17 18 19 20 21 22 23 24 25 26 27
000
ASUS45 KBOU 152307
RWRCO

WEATHER ROUNDUP FOR COLORADO
NATIONAL WEATHER SERVICE DENVER/BOULDER CO
400 PM MST SUN JAN 15 2017

NOTE: "FAIR" INDICATES FEW OR NO CLOUDS BELOW 12000 FEET WITH NO
SIGNIFICANT WEATHER AND/OR OBSTRUCTIONS TO VISIBILITY.

COZ001>005-013-030-031-160000-
...NORTHWEST COLORADO...

CITY           SKY/WX    TMP DP  RH WIND       PRES   REMARKS
CRAIG          CLOUDY    24  19  81 W9        30.01R WCI  14
HAYDEN         CLOUDY    21  18  86 NW7       29.99R WCI  13
MEEKER         CLOUDY    27  23  85 SW6       29.98S WCI  20
MOUNT WERNER   NOT AVBL
STEAMBOAT SPGS CLOUDY    23  22  94 CALM      29.97S
WALDEN           N/A    N/A N/A N/A CALM      29.97S
$$

COZ006>008-011-160000-
...WEST CENTRAL VALLEYS...

CITY           SKY/WX    TMP DP  RH WIND       PRES   REMARKS
GRAND JUNCTION CLOUDY    43  33  68 W7        29.90F
MONTROSE       CLOUDY    38  34  85 NW7       29.93S
EAGLE          SUNNY     34  27  75 CALM      29.93S
RIFLE          FAIR      38  29  70 W14       29.92R
DELTA          CLOUDY    41  34  75 CALM      29.93R
NUCLA          CLOUDY    37  34  87 CALM      29.95R
$$

COZ017>023-064>068-160000-
...SOUTHWEST COLORADO...

CITY           SKY/WX    TMP DP  RH WIND       PRES   REMARKS
DURANGO        CLOUDY    43  36  76 SW7       29.83S
CORTEZ         CLOUDY    39  39 100 NW7       29.88R
PAGOSA SPRINGS CLOUDY    38  37  93 CALM      29.86R
TELLURIDE      CLOUDY    34  30  87 W12       29.91S WCI  25
WOLF CREEK PAS CLOUDY    25  25 100 N5        29.96F WCI  19
$$

COZ009-010-012-014-032>034-037-058>063-160000-
...CENTRAL COLORADO...

CITY           SKY/WX    TMP DP  RH WIND       PRES   REMARKS
ASPEN          FAIR      32  25  75 CALM      29.88R
BUENA VISTA    CLOUDY    33  28  80 CALM      29.91S
COPPER MTN     CLOUDY    32  23  69 E3        29.96S
BERTHOUD PASS  NOT AVBL
COTTONWOOD PAS CLOUDY    32  28  86 CALM      29.93S
GUNNISON       FAIR      21  19  92 CALM      29.91S
KREMMLING      CLOUDY    27  23  86 CALM      29.96S
LEADVILLE      CLOUDY    27  23  85 S5        29.90R WCI  22
MONARCH PASS   CLOUDY    23  21  93 E12       30.03R WCI  12
SALIDA         CLOUDY    35  31  85 SE3       29.98S
SUNLIGHT       FAIR      27  21  80 CALM      29.98R HAZE
WILKERSON PASS CLOUDY    25  23  93 NE10      29.96F FOG     WCI  15
$$

COZ069>075-160000-
...SAN LUIS VALLEY/SANGRE DE CRISTO MOUNTAINS...

CITY           SKY/WX    TMP DP  RH WIND       PRES   REMARKS
ALAMOSA        CLOUDY    33  33 100 CALM      29.85S FOG
LA VETA PASS   NOT AVBL
SAGUACHE       CLOUDY    34  32  93 CALM      29.86S
$$

COZ035-036-038>040-160000-
...NORTHERN COLORADO FRONT RANGE...

CITY           SKY/WX    TMP DP  RH WIND       PRES   REMARKS
DENVER INTL AP FLURRIES  34  25  69 N7        29.96S WCI  28
DMNS CITY PARK   N/A     33  29  85 CALM      29.97S
AURORA         LGT SNOW  33  29  88 W5        29.96S FOG     WCI  28
FRONT RANGE AP NOT AVBL
ERIE MUNI ARPT CLOUDY    35  28  77 NE5       29.97S WCI  31
BOULDER MUN AP CLOUDY    36  27  69 N5        29.96S
CENTENNIAL     LGT SNOW  32  30  92 CALM      29.95F FOG
BROOMFIELD     LGT SNOW  36  28  75 NE5       29.96S
FORT COLLINS   FAIR      36  27  69 NE3       29.98S
LONGMONT       CLOUDY    39  26  60 NE5       29.99S
$$

COZ041-046-047-076>085-087-088-160000-
...PIKES PEAK/PALMER DIVIDE AND SOUTHERN FOOTHILLS...

CITY           SKY/WX    TMP DP  RH WIND       PRES   REMARKS
COLO. SPRINGS  LGT SNOW  32  31  96 SE3       29.93F VSB 1
A. F. ACADEMY  CLOUDY    32  28  86 N9        29.91F WCI  24
SCHRIEVER AFB  NOT AVBL
ELLICOTT       CLOUDY   N/A N/A N/A N6        29.92S
FALCON         FLURRIES  33  28  83 N9        29.92F WCI  25
FORT CARSON    LGT SNOW  32  32 100 VRB3      29.94F FOG
LIMON          CLOUDY    31  28  89 N9        29.94F WCI  23
MONUMENT HILL  LGT SNOW  28  28 100 NW8       29.94F WCI  20
TRINIDAD       CLOUDY    31  28  89 CALM      29.93F FOG
$$

COZ042>045-048>051-090-091-160000-
...NORTHEAST COLORADO...

CITY           SKY/WX    TMP DP  RH WIND       PRES   REMARKS
GREELEY ARPT   CLOUDY    36  25  64 CALM      29.99S
AKRON          LGT SNOW  29  26  89 N5        29.97F FOG     WCI  24
BURLINGTON     CLOUDY    32  29  88 N8        29.97F WCI  25
WRAY           NOT AVBL
STERLING       LGT SNOW  32  28  86 CALM      29.99F
HOLYOKE        LGT SNOW  34  32  93 CALM      30.02F
FORT MORGAN    CLOUDY    32  26  80 E6        29.99S WCI  26
$$

COZ086-089-092>099-160000-
...SOUTHEAST COLORADO...

CITY           SKY/WX    TMP DP  RH WIND       PRES   REMARKS
PUEBLO         CLOUDY    35  31  85 CALM      29.95S FOG
LA JUNTA       LGT SNOW  33  31  92 CALM      29.97S FOG
LAMAR          LGT RAIN  33  30  88 CALM      29.97S
SPRINGFIELD      N/A     31  31 100 N9        29.93F WCI  23
$$




USA.gov is the U.S. government's official web portal to all federal, state and local government web resources and services.